Regional Weather Roundup
Issued by NWS Charleston, WV

Home | Current Version | Previous Version | Graphics & Text | Print | Product List | Glossary On
Versions: 1 2 3 4 5 6 7 8 9 10 11 12 13 14 15 16 17 18 19 20 21 22 23 24 25 26 27 28 29 30 31 32 33 34 35 36 37 38 39 40 41 42 43 44 45 46 47 48 49 50
000
ASUS41 KRLX 030210
RWRRLX
West Virginia Regional Weather Roundup
National Weather Service Charleston WV
Issued by National Weather Service Pittsburgh PA
900 PM EST FRI DEC 02 2016

Note: "fair" indicates few or no clouds below 12,000 feet with no
significant weather and/or obstructions to visibility.

WVZ003-030300-
Northern Panhandle of West Virginia

CITY           SKY/WX    TMP DP  RH WIND       PRES   REMARKS
WHEELING       MIX PCPN  35  30  82 W13G20    30.17R WCI  26
$$

WVZ009-030300-
Northwest West Virginia

CITY           SKY/WX    TMP DP  RH WIND       PRES   REMARKS
PARKERSBURG    CLOUDY    37  32  82 W8        30.28R
$$

WVZ006-030300-
Western West Virginia

CITY           SKY/WX    TMP DP  RH WIND       PRES   REMARKS
HUNTINGTON     CLOUDY    39  28  64 W6        30.29R
$$

WVZ015-030300-
West Central West Virginia

CITY           SKY/WX    TMP DP  RH WIND       PRES   REMARKS
CHARLESTON     CLOUDY    38  28  67 SW8       30.27S
$$

WVZ031-030300-
North Central West Virginia

CITY           SKY/WX    TMP DP  RH WIND       PRES   REMARKS
CLARKSBURG     LGT RAIN  35  32  88 W6        30.22R WCI  30
MORGANTOWN     CLOUDY    37  31  78 SW5       30.19S
$$

WVZ035-042-030300-
South Central West Virginia

CITY           SKY/WX    TMP DP  RH WIND       PRES   REMARKS
BECKLEY        CLOUDY    31  25  78 NW13      30.21R WCI  21
BLUEFIELD      CLOUDY    31  26  82 NW12      30.19R WCI  22
$$

WVZ045-030300-
Greenbrier Valley of West Virginia

CITY           SKY/WX    TMP DP  RH WIND       PRES   REMARKS
LEWISBURG      CLOUDY    32  27  80 NW8G16    30.19R WCI  25
$$

WVZ047-030300-
Northern Mountains of West Virginia

CITY           SKY/WX    TMP DP  RH WIND       PRES   REMARKS
ELKINS         CLOUDY    33  26  75 W10G17    30.19S WCI  25
$$

WVZ052-030300-
Eastern Panhandle of West Virginia

CITY           SKY/WX    TMP DP  RH WIND       PRES   REMARKS
MARTINSBURG    CLOUDY    41  25  53 W16       30.09F
PETERSBURG     CLOUDY    41  27  56 CALM      30.16R
$$



USA.gov is the U.S. government's official web portal to all federal, state and local government web resources and services.